Date String (YYYY-MM-DD hh:mm:ss) UTC,Instrument flags,absolute air pressure of the measurement (hPa),sample flow rate (lpm),inlet stack bypass flow (lpm),air temperature of the measurement (°C),ambient temperature measured by the external sensor (°C),aerosol sample conditioner tube jacket temperature (°C),OPC LED temperature (°C),internal box temperature (°C),relative humidity of the measurement (%),span deviation,mass concentration of particles derived from Lorenz-Mie calculation of OPC scattering (μg/m³),mass concentration of particles derived from Lorenz-Mie calculation of OPC scattering (μg/m³),mass concentration of particles derived from Lorenz-Mie calculation of OPC scattering (μg/m³)
DateTimeUTC,F1_M11,P_M11,Q1_M11,Q2_M11,T1_M11,T2_M11,T3_M11,T4_M11,T5_M11,U1_M11,ZSPAN_M11,X0_M11,X2_M11,X1_M11
2024-06-13 10:00:00,SystemResetWarning,0829.0,5.00,000.00,029.8,027.6,000.0,038.6,031.0,016.3,0000.0,0012.48,0004.72,0003.94
2024-06-13 10:01:00,SystemResetWarning,0828.9,5.00,000.00,029.8,027.9,000.0,038.5,031.2,016.2,0000.0,0012.32,0004.70,0003.94
2024-06-13 10:02:00,SystemResetWarning,0829.0,5.00,000.00,029.8,028.2,000.0,038.4,031.3,016.2,0000.0,0011.81,0004.68,0003.94
2024-06-13 10:03:00,SystemResetWarning,0829.0,5.00,000.00,029.9,028.5,000.0,038.4,031.4,016.0,0000.0,0011.68,0004.67,0003.93
2024-06-13 10:04:00,SystemResetWarning,0829.0,4.99,000.00,029.9,028.7,000.0,038.4,031.5,015.9,0000.0,0011.53,0004.66,0003.94
2024-06-13 10:05:00,SystemResetWarning,0829.0,5.00,000.00,029.9,028.9,000.0,038.4,031.6,016.0,0000.0,0011.76,0004.69,0003.94
2024-06-13 10:06:00,SystemResetWarning,0829.0,5.00,000.00,030.0,029.0,000.0,038.3,031.6,016.0,0000.0,0011.36,0004.67,0003.93
2024-06-13 10:07:00,SystemResetWarning,0829.0,5.00,000.00,030.0,029.1,000.0,038.3,031.7,015.9,0000.0,0011.00,0004.64,0003.92
2024-06-13 10:08:00,SystemResetWarning,0829.0,5.00,000.00,030.0,029.2,000.0,038.3,031.7,015.8,0000.0,0011.17,0004.62,0003.91
2024-06-13 10:09:00,SystemResetWarning,0828.9,4.99,000.00,030.1,029.3,000.0,038.4,031.8,015.7,0000.0,0011.28,0004.61,0003.91
2024-06-13 10:10:00,SystemResetWarning,0828.9,5.00,000.00,030.1,029.4,000.0,038.4,031.8,015.7,0000.0,0011.23,0004.63,0003.90
2024-06-13 10:11:00,SystemResetWarning,0829.0,5.00,000.00,030.1,029.5,000.0,038.4,031.8,015.8,0000.0,0010.85,0004.62,0003.90
2024-06-13 10:12:00,SystemResetWarning,0829.0,5.00,000.00,030.2,029.5,000.0,038.4,031.9,015.8,0000.0,0010.70,0004.61,0003.90
2024-06-13 10:13:00,SystemResetWarning,0829.0,5.00,000.00,030.2,029.6,000.0,038.4,031.9,015.8,0000.0,0010.63,0004.60,0003.89
2024-06-13 10:14:00,SystemResetWarning,0829.0,5.00,000.00,030.2,029.6,000.0,038.5,032.0,015.7,0000.0,0010.48,0004.56,0003.88
2024-06-13 10:15:00,SystemResetWarning,0828.9,5.00,000.00,030.3,029.7,000.0,038.5,032.0,015.7,0000.0,0010.39,0004.55,0003.88
2024-06-13 10:16:00,SystemResetWarning,0829.0,5.00,000.00,030.3,029.7,000.0,038.5,032.0,015.8,0000.0,0010.18,0004.54,0003.89
2024-06-13 10:17:00,SystemResetWarning,0829.0,5.00,000.00,030.4,029.8,000.0,038.5,032.0,015.7,0000.0,0010.09,0004.54,0003.90
2024-06-13 10:18:00,SystemResetWarning,0829.0,5.00,000.00,030.4,029.8,000.0,038.5,032.1,015.8,0000.0,0009.89,0004.54,0003.90
2024-06-13 10:19:00,SystemResetWarning,0829.0,5.00,000.00,030.4,029.8,000.0,038.6,032.1,015.7,0000.0,0009.33,0004.52,0003.90
2024-06-13 10:20:00,SystemResetWarning,0829.0,4.99,000.00,030.4,029.9,000.0,038.6,032.1,015.7,0000.0,0008.67,0004.57,0003.91
2024-06-13 10:21:00,SystemResetWarning,0829.0,5.00,000.00,030.5,029.9,000.0,038.6,032.2,015.7,0000.0,0008.46,0004.60,0003.91
2024-06-13 10:22:00,SystemResetWarning,0829.0,5.00,000.00,030.5,029.9,000.0,038.6,032.2,015.6,0000.0,0008.79,0004.62,0003.91
2024-06-13 10:23:00,SystemResetWarning,0829.1,4.99,000.00,030.5,029.9,000.0,038.7,032.2,015.6,0000.0,0009.71,0004.62,0003.92
2024-06-13 10:24:00,SystemResetWarning,0829.0,4.99,000.00,030.6,030.0,000.0,038.7,032.3,015.6,0000.0,0009.76,0004.65,0003.92
2024-06-13 10:25:00,SystemResetWarning,0829.0,5.00,000.00,030.6,030.0,000.0,038.7,032.3,015.5,0000.0,0009.93,0004.72,0003.94
2024-06-13 10:26:00,SystemResetWarning,0829.0,5.00,000.00,030.6,030.0,000.0,038.7,032.3,015.6,0000.0,0010.35,0004.76,0003.95
2024-06-13 10:27:00,SystemResetWarning,0829.0,5.00,000.00,030.6,030.0,000.0,038.8,032.3,015.5,0000.0,0010.41,0004.75,0003.95
2024-06-13 10:28:00,SystemResetWarning,0828.9,5.00,000.00,030.7,030.1,000.0,038.8,032.4,015.4,0000.0,0010.27,0004.77,0003.95
2024-06-13 10:29:00,SystemResetWarning,0828.9,5.00,000.00,030.7,030.1,000.0,038.8,032.4,015.4,0000.0,0010.27,0004.77,0003.95
2024-06-13 10:30:00,SystemResetWarning,0829.0,5.00,000.00,030.7,030.1,000.0,038.8,032.4,015.3,0000.0,0010.34,0004.76,0003.95
2024-06-13 10:31:00,SystemResetWarning,0828.9,4.99,000.00,030.7,030.1,000.0,038.9,032.4,015.4,0000.0,0010.39,0004.74,0003.95
2024-06-13 10:32:00,SystemResetWarning,0829.0,5.00,000.00,030.8,030.2,000.0,038.9,032.4,015.2,0000.0,0010.40,0004.69,0003.95
2024-06-13 10:33:00,SystemResetWarning,0828.9,4.99,000.00,030.7,029.0,000.0,039.0,031.8,015.3,0000.0,0010.93,0004.71,0003.95
2024-06-13 10:34:00,SystemResetWarning,0829.0,5.01,000.00,030.2,026.7,000.0,039.0,030.8,015.7,0000.0,0010.46,0004.75,0003.95
2024-06-13 10:35:00,SystemResetWarning,0829.0,5.01,000.00,029.9,026.6,000.0,038.9,030.6,016.0,0000.0,0010.81,0004.74,0003.96
2024-06-13 10:36:00,SystemResetWarning,0828.9,4.99,000.00,029.8,027.0,000.0,038.8,030.7,016.1,0000.0,0012.24,0004.73,0003.96
2024-06-13 10:37:00,SystemResetWarning,0829.0,5.00,000.00,029.8,027.4,000.0,038.6,031.0,016.3,0000.0,0012.39,0004.72,0003.96
2024-06-13 10:38:00,SystemResetWarning,0829.0,5.01,000.00,029.8,027.8,000.0,038.5,031.2,016.2,0000.0,0012.36,0004.73,0003.96
2024-06-13 10:39:00,SystemResetWarning,0829.0,5.01,000.00,029.8,028.1,000.0,038.5,031.3,016.2,0000.0,0012.51,0004.72,0003.95
2024-06-13 10:40:00,SystemResetWarning,0829.0,5.00,000.00,029.9,028.4,000.0,038.4,031.4,016.1,0000.0,0012.68,0004.76,0003.96
2024-06-13 10:41:00,SystemResetWarning,0829.1,4.99,000.00,029.9,028.6,000.0,038.4,031.5,016.1,0000.0,0012.91,0004.80,0003.97
2024-06-13 10:42:00,SystemResetWarning,0829.1,5.00,000.00,029.9,028.8,000.0,038.4,031.6,016.2,0000.0,0012.84,0004.78,0003.96
2024-06-13 10:43:00,SystemResetWarning,0829.1,5.00,000.00,030.0,029.0,000.0,038.4,031.6,016.1,0000.0,0012.74,0004.79,0003.96
2024-06-13 10:44:00,SystemResetWarning,0829.1,5.00,000.00,030.0,029.1,000.0,038.4,031.7,016.1,0000.0,0011.97,0004.74,0003.95
2024-06-13 10:45:00,SystemResetWarning,0829.1,5.00,000.00,030.1,029.2,000.0,038.4,031.7,016.0,0000.0,0011.64,0004.69,0003.95
2024-06-13 10:46:00,SystemResetWarning,0829.1,5.00,000.00,030.1,029.3,000.0,038.4,031.8,016.2,0000.0,0011.54,0004.66,0003.95
2024-06-13 10:47:00,SystemResetWarning,0829.1,5.00,000.00,030.1,029.4,000.0,038.4,031.9,016.2,0000.0,0010.02,0004.61,0003.95
2024-06-13 10:48:00,SystemResetWarning,0829.2,5.00,000.00,030.2,029.5,000.0,038.4,031.9,016.6,0000.0,0009.85,0004.61,0003.96
2024-06-13 10:49:00,SystemResetWarning,0829.2,5.00,000.00,030.2,029.6,000.0,038.4,031.9,016.8,0000.0,0010.24,0004.63,0003.96
2024-06-13 10:50:00,SystemResetWarning,0829.2,5.00,000.00,030.2,029.6,000.0,038.4,032.0,016.6,0000.0,0010.65,0004.61,0003.96
2024-06-13 10:51:00,SystemResetWarning,0829.2,5.00,000.00,030.3,029.7,000.0,038.5,032.0,016.2,0000.0,0011.53,0004.55,0003.95
2024-06-13 10:52:00,SystemResetWarning,0829.2,5.00,000.00,030.3,029.7,000.0,038.5,032.0,016.2,0000.0,0011.09,0004.50,0003.94
2024-06-13 10:53:00,SystemResetWarning,0829.2,5.00,000.00,030.4,029.8,000.0,038.5,032.0,016.1,0000.0,0010.98,0004.47,0003.92
2024-06-13 10:54:00,SystemResetWarning,0829.2,4.99,000.00,030.4,029.8,000.0,038.6,032.1,015.8,0000.0,0011.04,0004.46,0003.92
2024-06-13 10:55:00,SystemResetWarning,0829.2,4.99,000.00,030.4,029.8,000.0,038.6,032.1,015.8,0000.0,0011.15,0004.50,0003.92
2024-06-13 10:56:00,SystemResetWarning,0829.2,5.00,000.00,030.5,029.9,000.0,038.6,032.1,015.8,0000.0,0011.28,0004.54,0003.91
2024-06-13 10:57:00,SystemResetWarning,0829.2,5.00,000.00,030.5,029.9,000.0,038.6,032.2,015.7,0000.0,0010.84,0004.53,0003.90
2024-06-13 10:58:00,SystemResetWarning,0829.2,5.01,000.00,030.5,029.9,000.0,038.6,032.2,015.6,0000.0,0010.89,0004.59,0003.90
2024-06-13 10:59:00,SystemResetWarning,0829.2,5.01,000.00,030.6,030.0,000.0,038.7,032.2,015.4,0000.0,0011.00,0004.62,0003.89
